CW1238 Weather Reports


Display with metric or nautical units.
time (UTC)temp
F
wind
direction
speed
MPH
gust
MPH
rain 1hr
in
rain 24hr
in
rain mn
in
humidity
%
barometer
mb
20260507203123 61 352 5.0 7.0 0.00 0.00 0.00 27 1047.9
20260507202619 61 206 2.0 4.0 0.00 0.00 0.00 29 1048.1
20260507202115 61 233 1.0 6.0 0.00 0.00 0.00 26 1048.4
20260507201611 61 236 2.0 6.0 0.00 0.00 0.00 27 1048.3
20260507201108 59 59 1.0 3.0 0.00 0.00 0.00 29 1048.3
20260507200603 60 263 5.0 9.0 0.00 0.00 0.00 31 1048.4
20260507200100 61 277 4.0 7.0 0.00 0.00 0.00 30 1048.1
20260507195557 61 67 2.0 4.0 0.00 0.00 0.00 29 1048.4
20260507195054 60 39 4.0 6.0 0.00 0.00 0.00 34 1048.2
20260507194550 59 249 3.0 8.0 0.00 0.00 0.00 29 1048.4
20260507194046 60 261 2.0 3.0 0.00 0.00 0.00 32 1048.4
20260507193544 60 193 2.0 7.0 0.00 0.00 0.00 29 1048.5
20260507193040 60 329 5.0 7.0 0.00 0.00 0.00 32 1048.4
20260507192537 60 257 4.0 4.0 0.00 0.00 0.00 30 1048.4
20260507192033 60 302 4.0 6.0 0.00 0.00 0.00 32 1048.6
20260507191529 60 223 3.0 7.0 0.00 0.00 0.00 32 1048.7
20260507191026 60 53 2.0 7.0 0.00 0.00 0.00 32 1048.6
20260507190523 59 347 3.0 8.0 0.00 0.00 0.00 31 1048.5
20260507190022 59 264 4.0 6.0 0.00 0.00 0.00 33 1048.5
20260507185520 59 307 2.0 6.0 0.00 0.00 0.00 33 1048.6
20260507185016 58 224 5.0 8.0 0.00 0.00 0.00 34 1048.6
20260507184515 58 317 4.0 8.0 0.00 0.00 0.00 34 1048.6
20260507184012 58 298 5.0 8.0 0.00 0.00 0.00 37 1048.4
20260507183508 58 255 2.0 8.0 0.00 0.00 0.00 34 1048.7
20260507183006 59 263 4.0 6.0 0.00 0.00 0.00 36 1048.8
20260507182501 58 46 2.0 8.0 0.00 0.00 0.00 37 1048.6
20260507181957 59 33 3.0 4.0 0.00 0.00 0.00 37 1048.6
20260507181454 58 215 3.0 4.0 0.00 0.00 0.00 38 1048.7
20260507180950 58 263 2.0 3.0 0.00 0.00 0.00 36 1048.5
20260507180447 57 321 3.0 4.0 0.00 0.00 0.00 39 1048.7
20260507175943 58 92 1.0 3.0 0.00 0.00 0.00 40 1048.7
20260507175440 57 155 2.0 4.0 0.00 0.00 0.00 42 1048.9
20260507174938 58 336 2.0 6.0 0.00 0.00 0.00 39 1048.9
20260507174435 57 345 2.0 4.0 0.00 0.00 0.00 41 1048.8
20260507173932 59 310 6.0 7.0 0.00 0.00 0.00 36 1049.0
20260507173429 57 261 2.0 4.0 0.00 0.00 0.00 39 1049.0
20260507172926 56 10 3.0 4.0 0.00 0.00 0.00 39 1049.0
20260507172422 57 217 2.0 3.0 0.00 0.00 0.00 40 1049.3
20260507171919 58 233 2.0 3.0 0.00 0.00 0.00 39 1049.3
20260507171415 57 316 2.0 2.0 0.00 0.00 0.00 38 1049.4
20260507170913 57 41 2.0 6.0 0.00 0.00 0.00 39 1049.4
20260507170409 55 284 2.0 4.0 0.00 0.00 0.00 39 1049.6
20260507165905 55 39 2.0 6.0 0.00 0.00 0.00 41 1049.5
20260507165401 56 59 2.0 3.0 0.00 0.00 0.00 44 1049.5
20260507164857 56 294 3.0 4.0 0.00 0.00 0.00 39 1049.6
20260507164354 56 46 4.0 6.0 0.00 0.00 0.00 42 1049.5
20260507163851 55 281 3.0 4.0 0.00 0.00 0.00 39 1049.8
20260507163349 55 338 2.0 3.0 0.00 0.00 0.00 41 1049.6
20260507162845 56 127 2.0 2.0 0.00 0.00 0.00 44 1049.5
20260507162341 55 335 1.0 2.0 0.00 0.00 0.00 40 1049.7
20260507161838 56 180 2.0 4.0 0.00 0.00 0.00 41 1049.6
20260507161334 56 359 3.0 4.0 0.00 0.00 0.00 40 1049.6
20260507160831 56 295 2.0 3.0 0.00 0.00 0.00 38 1049.5
20260507160327 55 32 2.0 4.0 0.00 0.00 0.00 40 1049.8
20260507155823 53 304 2.0 6.0 0.00 0.00 0.00 44 1049.7
20260507155319 54 146 1.0 4.0 0.00 0.00 0.00 42 1049.7
20260507154816 54 56 3.0 3.0 0.00 0.00 0.00 42 1049.7
20260507154314 54 266 2.0 3.0 0.00 0.00 0.00 40 1049.7
20260507153810 54 34 2.0 2.0 0.00 0.00 0.00 43 1049.7
20260507153307 54 347 1.0 4.0 0.00 0.00 0.00 42 1049.8
20260507152803 53 68 4.0 4.0 0.00 0.00 0.00 40 1049.7
20260507152300 53 19 4.0 6.0 0.00 0.00 0.00 42 1050.0
20260507151755 51 71 1.0 2.0 0.00 0.00 0.00 46 1049.7
20260507151252 51 169 1.0 3.0 0.00 0.00 0.00 43 1049.7
20260507150749 51 54 2.0 9.0 0.00 0.00 0.00 44 1049.8
20260507150246 51 48 2.0 4.0 0.00 0.00 0.00 43 1049.9
20260507145742 50 53 5.0 7.0 0.00 0.00 0.00 43 1049.9
20260507145238 50 53 2.0 6.0 0.00 0.00 0.00 45 1049.9
20260507144735 50 4 4.0 6.0 0.00 0.00 0.00 45 1050.0
20260507144233 50 23 4.0 6.0 0.00 0.00 0.00 42 1050.0
20260507143729 51 104 4.0 8.0 0.00 0.00 0.00 43 1049.8
20260507143227 51 16 3.0 7.0 0.00 0.00 0.00 44 1050.1
20260507142723 50 349 3.0 3.0 0.00 0.00 0.00 45 1050.0
20260507142219 50 64 3.0 4.0 0.00 0.00 0.00 46 1050.1
20260507141715 49 217 1.0 6.0 0.00 0.00 0.00 45 1050.0
20260507141213 48 62 4.0 6.0 0.00 0.00 0.00 46 1050.2
20260507140709 47 49 4.0 6.0 0.00 0.00 0.00 48 1050.2
20260507140207 47 41 2.0 3.0 0.00 0.00 0.00 50 1050.1
20260507135703 46 210 1.0 2.0 0.00 0.00 0.00 51 1050.2
20260507135201 45 8 4.0 6.0 0.00 0.00 0.00 51 1050.2
20260507134657 45 42 1.0 3.0 0.00 0.00 0.00 53 1050.1
20260507134154 44 14 1.0 1.0 0.00 0.00 0.00 55 1050.2
20260507133649 43 35 3.0 3.0 0.00 0.00 0.00 57 1050.1
20260507133146 43 356 3.0 3.0 0.00 0.00 0.00 58 1050.3
20260507132644 43 331 1.0 2.0 0.00 0.00 0.00 63 1050.6
20260507132140 43 349 2.0 3.0 0.00 0.00 0.00 60 1050.8
20260507131637 41 311 2.0 2.0 0.00 0.00 0.00 64 1051.0
20260507131134 41 311 2.0 2.0 0.00 0.00 0.00 64 1050.7
20260507130630 41 311 2.0 2.0 0.00 0.00 0.00 64 1050.8
20260507130129 42 288 0.0 0.0 0.00 0.00 0.00 60 1051.0
20260507125627 42 288 0.0 0.0 0.00 0.00 0.00 60 1051.0
20260507125125 42 288 0.0 0.0 0.00 0.00 0.00 60 1051.0
20260507124620 42 288 0.0 0.0 0.00 0.00 0.00 60 1050.8
20260507124118 36 177 0.0 0.0 0.00 0.00 0.00 67 1050.3
20260507123616 36 177 0.0 0.0 0.00 0.00 0.00 67 1050.3
20260507123113 36 177 0.0 0.0 0.00 0.00 0.00 67 1050.2
20260507122608 36 177 0.0 0.0 0.00 0.00 0.00 67 1050.1
20260507122104 36 177 0.0 0.0 0.00 0.00 0.00 67 1050.2
20260507121601 36 177 0.0 0.0 0.00 0.00 0.00 67 1050.1
20260507121056 36 177 0.0 0.0 0.00 0.00 0.00 67 1050.1
20260507120552 36 177 0.0 0.0 0.00 0.00 0.00 67 1050.0
20260507120049 36 177 0.0 0.0 0.00 0.00 0.00 67 1050.0
20260507115546 36 177 0.0 0.0 0.00 0.00 0.00 67 1049.8
20260507115042 36 177 0.0 0.0 0.00 0.00 0.00 67 1049.7
20260507114537 36 166 0.0 0.0 0.00 0.00 0.00 68 1049.8
20260507114035 36 103 1.0 2.0 0.00 0.00 0.00 68 1049.9
20260507113532 35 135 0.0 1.0 0.00 0.00 0.00 69 1049.8
20260507113029 35 135 0.0 1.0 0.00 0.00 0.00 69 1049.9
20260507112527 0 0.0 0.0 0.00 0.00 0.00 1050.2
20260507112024 0 0.0 0.0 0.00 0.00 0.00 1050.0
20260507111521 0 0.0 0.0 0.00 0.00 0.00 1050.0
20260507111017 0 0.0 0.0 0.00 0.00 0.00 1050.1
20260507110514 35 163 0.0 0.0 0.00 0.00 0.00 66 1050.0
20260507110010 35 163 0.0 0.0 0.00 0.00 0.00 66 1050.0
20260507105507 35 163 0.0 0.0 0.00 0.00 0.00 66 1050.2
20260507105003 35 163 0.0 0.0 0.00 0.00 0.00 66 1050.2
20260507104501 35 163 0.0 0.0 0.00 0.00 0.00 66 1050.1
20260507103956 35 163 0.0 0.0 0.00 0.00 0.00 66 1050.1
20260507103453 35 163 0.0 0.0 0.00 0.00 0.00 66 1050.3
20260507102949 35 163 0.0 0.0 0.00 0.00 0.00 66 1050.4
20260507102446 35 163 0.0 0.0 0.00 0.00 0.00 66 1050.5
20260507101943 35 163 0.0 0.0 0.00 0.00 0.00 66 1050.5
20260507101438 35 163 0.0 0.0 0.00 0.00 0.00 66 1050.5
20260507100934 35 163 0.0 0.0 0.00 0.00 0.00 66 1050.5
20260507100432 35 182 0.0 1.0 0.00 0.00 0.00 68 1050.6
20260507095930 32 169 0.0 0.0 0.00 0.00 0.00 76 1050.5
20260507095427 32 169 0.0 0.0 0.00 0.00 0.00 76 1050.8
20260507094924 32 169 0.0 0.0 0.00 0.00 0.00 76 1050.7
20260507094420 32 169 0.0 0.0 0.00 0.00 0.00 76 1050.7
20260507093917 32 169 0.0 0.0 0.00 0.00 0.00 76 1050.9
20260507093415 0 0.0 0.0 0.00 0.00 0.00 1051.1
20260507092914 0 0.0 0.0 0.00 0.00 0.00 1051.1
20260507092409 0 0.0 0.0 0.00 0.00 0.00 1051.2
20260507091906 0 0.0 0.0 0.00 0.00 0.00 1051.4
20260507091403 0 0.0 0.0 0.00 0.00 0.00 1051.5
20260507090858 0 0.0 0.0 0.00 0.00 0.00 1051.8
20260507090355 0 0.0 0.0 0.00 0.00 0.00 1051.7
20260507085852 0 0.0 0.0 0.00 0.00 0.00 1051.8
20260507085349 0 0.0 0.0 0.00 0.00 0.00 1052.0
20260507084846 0 0.0 0.0 0.00 0.00 0.00 1051.7
20260507084342 0 0.0 0.0 0.00 0.00 0.00 1051.9
20260507083840 0 0.0 0.0 0.00 0.00 0.00 1051.8
20260507083336 0 0.0 0.0 0.00 0.00 0.00 1051.8
20260507082832 0 0.0 0.0 0.00 0.00 0.00 1051.8
20260507082328 0 0.0 0.0 0.00 0.00 0.00 1052.0
20260507081825 0 0.0 0.0 0.00 0.00 0.00 1051.7
20260507081321 0 0.0 0.0 0.00 0.00 0.00 1052.2
20260507080818 0 0.0 0.0 0.00 0.00 0.00 1052.4
20260507080314 0 0.0 0.0 0.00 0.00 0.00 1052.0
20260507075810 0 0.0 0.0 0.00 0.00 0.00 1051.9
20260507075307 0 0.0 0.0 0.00 0.00 0.00 1052.0
20260507074803 0 0.0 0.0 0.00 0.00 0.00 1052.0
20260507074301 0 0.0 0.0 0.00 0.00 0.00 1052.2
20260507073757 0 0.0 0.0 0.00 0.00 0.00 1052.3
20260507073254 0 0.0 0.0 0.00 0.00 0.00 1052.2
20260507072751 0 0.0 0.0 0.00 0.00 0.00 1052.3
20260507072249 0 0.0 0.0 0.00 0.00 0.00 1052.3
20260507071746 0 0.0 0.0 0.00 0.00 0.00 1052.3
20260507071242 0 0.0 0.0 0.00 0.00 0.00 1052.2
20260507070739 0 0.0 0.0 0.00 0.00 0.00 1052.3
20260507070236 0 0.0 0.0 0.00 0.00 0.00 1052.3
20260507065733 0 0.0 0.0 0.00 0.00 0.00 1052.2
20260507065230 0 0.0 0.0 0.00 0.00 0.00 1052.4
20260507064727 0 0.0 0.0 0.00 0.00 0.00 1052.5
20260507064226 0 0.0 0.0 0.00 0.00 0.00 1052.3
20260507063723 32 191 0.0 0.0 0.00 0.00 0.00 77 1052.5
20260507063220 32 191 0.0 0.0 0.00 0.00 0.00 77 1052.5
20260507062716 32 191 0.0 0.0 0.00 0.00 0.00 77 1052.6
20260507062214 32 191 0.0 0.0 0.00 0.00 0.00 77 1052.5
20260507061712 32 191 0.0 0.0 0.00 0.00 0.00 77 1052.6
20260507061209 32 191 0.0 0.0 0.00 0.00 0.00 77 1052.3
20260507060708 32 191 0.0 0.0 0.00 0.00 0.00 77 1052.3
20260507060203 32 191 0.0 0.0 0.00 0.00 0.00 77 1052.5
20260507055700 32 191 0.0 0.0 0.00 0.00 0.00 77 1052.4
20260507055155 32 191 0.0 0.0 0.00 0.00 0.00 77 1052.5
20260507054652 32 191 0.0 0.0 0.00 0.00 0.00 77 1052.5
20260507054148 32 191 0.0 0.0 0.00 0.00 0.00 77 1052.5
20260507053647 0 0.0 0.0 0.00 0.00 0.00 1052.7
20260507053144 0 0.0 0.0 0.00 0.00 0.00 1052.5
20260507052643 0 0.0 0.0 0.00 0.00 0.00 1052.5
20260507052138 0 0.0 0.0 0.00 0.00 0.00 1052.8
20260507051636 0 0.0 0.0 0.00 0.00 0.00 1052.7
20260507051132 0 0.0 0.0 0.00 0.00 0.00 1052.6
20260507050629 0 0.0 0.0 0.00 0.00 0.00 1052.7
20260507050126 0 0.0 0.0 0.00 0.00 0.00 1052.6
20260507045623 0 0.0 0.0 0.00 0.00 0.00 1052.7
20260507045119 0 0.0 0.0 0.00 0.00 0.00 1052.5
20260507044616 0 0.0 0.0 0.00 0.00 0.00 1052.8
20260507044108 0 0.0 0.0 0.00 0.00 0.00 1052.7
20260507043603 0 0.0 0.0 0.00 0.00 0.00 1052.6
20260507043101 0 0.0 0.0 0.00 0.00 0.00 1052.7
20260507042556 0 0.0 0.0 0.00 0.00 0.00 1052.9
20260507042052 0 0.0 0.0 0.00 0.00 0.00 1052.9
20260507041549 0 0.0 0.0 0.00 0.00 0.00 1053.0
20260507041047 0 0.0 0.0 0.00 0.00 0.00 1053.0
20260507040543 37 187 0.0 0.0 0.00 0.00 0.00 62 1053.1
20260507040039 37 187 0.0 0.0 0.00 0.00 0.00 62 1053.2
20260507035535 37 187 0.0 0.0 0.00 0.00 0.00 62 1053.3
20260507035032 37 187 0.0 0.0 0.00 0.00 0.00 62 1053.4
20260507034528 37 187 0.0 0.0 0.00 0.00 0.00 62 1053.5
20260507034027 37 187 0.0 0.0 0.00 0.00 0.00 62 1053.5
20260507033524 37 187 0.0 0.0 0.00 0.00 0.00 62 1053.6
20260507033021 37 187 0.0 0.0 0.00 0.00 0.00 62 1053.5
20260507032518 37 187 0.0 0.0 0.00 0.00 0.00 62 1053.5
20260507032014 37 187 0.0 0.0 0.00 0.00 0.00 62 1053.5
20260507031511 37 187 0.0 0.0 0.00 0.00 0.00 62 1053.6
20260507031009 37 187 0.0 0.0 0.00 0.00 0.00 62 1053.4
20260507030505 37 179 0.0 0.0 0.00 0.00 0.00 62 1053.6
20260507030003 37 179 0.0 0.0 0.00 0.00 0.00 62 1053.4
20260507025459 37 179 0.0 0.0 0.00 0.00 0.00 62 1053.5
20260507024957 0 0.0 0.0 0.00 0.00 0.00 1053.6
20260507024454 0 0.0 0.0 0.00 0.00 0.00 1053.6
20260507023950 0 0.0 0.0 0.00 0.00 0.00 1053.5
20260507023447 0 0.0 0.0 0.00 0.00 0.00 1053.6
20260507022944 0 0.0 0.0 0.00 0.00 0.00 1053.5
20260507022441 0 0.0 0.0 0.00 0.00 0.00 1053.4
20260507021936 0 0.0 0.0 0.00 0.00 0.00 1053.5
20260507021431 44 197 0.0 0.0 0.00 0.00 0.00 49 1053.4
20260507020930 44 197 0.0 0.0 0.00 0.00 0.00 49 1053.4
20260507020426 44 197 0.0 0.0 0.00 0.00 0.00 49 1053.2
20260507015923 44 197 0.0 0.0 0.00 0.00 0.00 49 1053.3
20260507015422 44 197 0.0 0.0 0.00 0.00 0.00 49 1053.2
20260507014918 44 197 0.0 0.0 0.00 0.00 0.00 49 1053.3
20260507014414 44 197 0.0 0.0 0.00 0.00 0.00 49 1053.1
20260507013911 44 197 0.0 0.0 0.00 0.00 0.00 49 1053.1
20260507013408 44 197 0.0 0.0 0.00 0.00 0.00 49 1053.2
20260507012905 44 197 0.0 0.0 0.00 0.00 0.00 49 1053.0
20260507012401 44 197 0.0 0.0 0.00 0.00 0.00 49 1053.2
20260507011858 44 197 0.0 0.0 0.00 0.00 0.00 49 1053.1
20260507011355 46 231 1.0 1.0 0.00 0.00 0.00 47 1053.2
20260507010849 46 231 1.0 1.0 0.00 0.00 0.00 47 1053.1
20260507010345 46 231 1.0 1.0 0.00 0.00 0.00 47 1053.2
20260507005843 47 273 2.0 3.0 0.00 0.00 0.00 45 1053.0
20260507005339 47 273 2.0 3.0 0.00 0.00 0.00 45 1053.1
20260507004836 47 290 2.0 3.0 0.00 0.00 0.00 44 1053.1
20260507004334 48 206 2.0 2.0 0.00 0.00 0.00 43 1053.1
20260507003831 48 206 2.0 2.0 0.00 0.00 0.00 43 1053.2
20260507003326 48 235 1.0 2.0 0.00 0.00 0.00 44 1053.2
20260507002821 48 197 1.0 1.0 0.00 0.00 0.00 44 1053.2
20260507002317 48 277 5.0 7.0 0.00 0.00 0.00 42 1053.3
20260507001814 48 323 3.0 3.0 0.00 0.00 0.00 42 1053.1
20260507001311 48 2 3.0 4.0 0.00 0.00 0.00 42 1053.1
20260507000808 49 194 2.0 3.0 0.00 0.00 0.00 43 1053.3
20260507000259 49 356 4.0 4.0 0.00 0.00 0.00 42 1053.2
20260506235755 49 45 2.0 2.0 0.00 0.00 0.00 42 1053.2
20260506235250 49 305 2.0 2.0 0.00 0.00 0.00 42 1053.3
20260506234747 49 238 1.0 3.0 0.00 0.00 0.00 43 1053.3
20260506234244 49 258 1.0 3.0 0.00 0.00 0.00 42 1053.4
20260506233742 49 260 4.0 7.0 0.00 0.00 0.00 42 1053.3
20260506233238 49 292 3.0 4.0 0.00 0.00 0.00 42 1053.4
20260506232735 48 340 3.0 4.0 0.00 0.00 0.00 43 1053.5
20260506232229 50 321 1.0 3.0 0.00 0.00 0.00 42 1053.5
20260506231727 50 285 4.0 6.0 0.00 0.00 0.00 41 1053.4
20260506231225 50 356 6.0 7.0 0.00 0.00 0.00 42 1053.3
20260506230722 48 347 2.0 3.0 0.00 0.00 0.00 43 1053.5
20260506230219 49 331 3.0 3.0 0.00 0.00 0.00 42 1053.4
20260506225715 50 292 3.0 7.0 0.00 0.00 0.00 41 1053.4
20260506225212 51 294 2.0 7.0 0.00 0.00 0.00 41 1053.5
20260506224708 50 289 2.0 3.0 0.00 0.00 0.00 42 1053.3
20260506224206 51 315 2.0 4.0 0.00 0.00 0.00 41 1053.5
20260506223702 50 1 1.0 4.0 0.00 0.00 0.00 42 1053.4
20260506223158 50 171 1.0 4.0 0.00 0.00 0.00 42 1053.2
20260506222655 51 308 3.0 7.0 0.00 0.00 0.00 41 1053.3
20260506222150 51 212 2.0 3.0 0.00 0.00 0.00 41 1053.4
20260506221649 50 26 4.0 7.0 0.00 0.00 0.00 40 1053.4
20260506221147 50 277 5.0 7.0 0.00 0.00 0.00 42 1053.4
20260506220643 50 294 4.0 8.0 0.00 0.00 0.00 40 1053.4
20260506220138 50 252 2.0 6.0 0.00 0.00 0.00 42 1053.6
20260506215635 50 273 3.0 4.0 0.00 0.00 0.00 42 1053.7
20260506215130 51 310 3.0 4.0 0.00 0.00 0.00 41 1053.7
20260506214627 50 261 6.0 8.0 0.00 0.00 0.00 42 1053.6
20260506214125 49 314 7.0 8.0 0.00 0.00 0.00 41 1053.7
20260506213623 49 297 3.0 3.0 0.00 0.00 0.00 43 1053.8
20260506213120 50 82 4.0 8.0 0.00 0.00 0.00 41 1053.8
20260506212617 50 337 5.0 7.0 0.00 0.00 0.00 44 1053.8
20260506212112 49 247 4.0 8.0 0.00 0.00 0.00 42 1053.8
20260506211608 48 293 4.0 9.0 0.00 0.00 0.00 43 1053.9
20260506211105 49 146 3.0 8.0 0.00 0.00 0.00 47 1053.8
20260506210602 49 252 5.0 7.0 0.00 0.00 0.00 42 1054.1
20260506210058 48 333 3.0 4.0 0.00 0.00 0.00 44 1054.0
20260506205555 49 13 3.0 6.0 0.00 0.00 0.00 42 1054.2
20260506205045 47 289 5.0 8.0 0.00 0.00 0.00 45 1054.1
20260506204543 47 264 2.0 9.0 0.00 0.00 0.00 44 1054.2
20260506204040 47 238 6.0 8.0 0.00 0.00 0.00 45 1054.4
20260506203539 47 14 3.0 6.0 0.00 0.00 0.00 45 1054.3